Andalusia, AL

12:49 PM CDT on October 23, 2017 (GMT -0500)
Andalusia

Weather History for K79J - May, 2014

Change the Weather History Date:

Friday, May 2, 2014

  Actual Average (KCEW) Record (KCEW)
Temperature  
Mean Temperature 70 °F -  
Max Temperature 79 °F 81 °F 91 °F (1990)
Min Temperature 60 °F 58 °F 39 °F (1999)
Cooling Degree Days 4    
Growing Degree Days 20 (Base 50)    
Moisture  
Dew Point 50 °F    
Average Humidity 56    
Maximum Humidity 83    
Minimum Humidity 31    
Precipitation  
Precipitation 0.02 in - - ()
Sea Level Pressure  
Sea Level Pressure 29.97 in    
Wind  
Wind Speed 2 mph (NNW)    
Max Wind Speed 10 mph    
Max Gust Speed -    
Visibility 10 miles    
Events Rain    
Averages and records for this station are not official NWS values.
T = Trace of Precipitation, MM = Missing Value Source: NWS Daily Summary

Daily Weather History Graph

Daily Weather History Graph

Search for Another Location

Airport or City:

Trip Planner

Search our weather history database for the weather conditions in past years. The results will help you decide how hot, cold, wet, or windy it might be!

Date:

Astronomy

May. 02, 2014 Rise Set
Actual Time 5:59 AM CDT 7:25 PM CDT
Civil Twilight 5:34 AM CDT 7:51 PM CDT
Nautical Twilight 5:03 AM CDT 8:22 PM CDT
Astronomical Twilight 4:31 AM CDT 8:54 PM CDT
Moon 8:40 AM CDT (5/2) 10:44 PM CDT (5/2)
Length of Visible Light 14h 17m
Length of Day
13h 25m
Waxing Crescent, 12% of the Moon is Illuminated
May 2
Waxing Crescent
May 6
First Quarter
May 14
Full
May 21
Last Quarter
May 28
New

Hourly Weather History & Observations

Time (CDT) Temp. Dew Point Humidity Pressure Visibility Wind Dir Wind Speed Gust Speed Precip Events Conditions
12:56 AM 61.0 °F 53.1 °F 75% 30.02 in 10.0 mi Calm Calm - 0.00 in Rain Light Rain
1:56 AM 60.1 °F 55.0 °F 83% 30.01 in 10.0 mi Calm Calm - 0.00 in Rain Light Rain
2:56 AM 61.0 °F 55.9 °F 83% 30.00 in 10.0 mi Calm Calm - 0.00 in Rain Light Rain
3:56 AM 61.0 °F 55.9 °F 83% 29.99 in 10.0 mi Calm Calm - 0.01 in   Overcast
4:56 AM 61.0 °F 55.0 °F 81% 29.97 in 10.0 mi Calm Calm - N/A   Overcast
5:56 AM 61.0 °F 55.0 °F 81% 30.00 in 9.0 mi WSW 3.5 mph - 0.00 in Rain Light Rain
6:56 AM 61.0 °F 53.1 °F 75% 29.99 in 10.0 mi Calm Calm - 0.01 in   Overcast
7:56 AM 63.0 °F 55.0 °F 75% 29.99 in 10.0 mi Calm Calm - N/A   Mostly Cloudy
8:56 AM 64.9 °F 53.1 °F 65% 29.98 in 10.0 mi Calm Calm - N/A   Overcast
9:56 AM 71.1 °F 48.9 °F 45% 29.99 in 10.0 mi Variable 3.5 mph - N/A   Clear
10:56 AM 72.0 °F 48.0 °F 43% 30.00 in 10.0 mi SSE 4.6 mph - N/A   Clear
11:56 AM 73.9 °F 48.0 °F 40% 29.99 in 10.0 mi Calm Calm - N/A   Partly Cloudy
12:56 PM 73.9 °F 48.9 °F 41% 29.97 in 10.0 mi East 5.8 mph - N/A   Mostly Cloudy
1:56 PM 77.0 °F 46.0 °F 33% 29.96 in 10.0 mi West 5.8 mph - N/A   Partly Cloudy
2:56 PM 77.0 °F 46.0 °F 33% 29.93 in 10.0 mi WNW 5.8 mph - N/A   Partly Cloudy
3:56 PM 79.0 °F 46.0 °F 31% 29.91 in 10.0 mi Calm Calm - N/A   Clear
4:56 PM 78.1 °F 46.0 °F 32% 29.91 in 10.0 mi North 10.4 mph - N/A   Partly Cloudy
5:56 PM 73.9 °F 46.0 °F 37% 29.91 in 10.0 mi North 6.9 mph - N/A   Clear
6:56 PM 72.0 °F 46.9 °F 41% 29.93 in 10.0 mi North 3.5 mph - N/A   Clear
7:56 PM 69.1 °F 48.0 °F 47% 29.94 in 10.0 mi North 5.8 mph - N/A   Partly Cloudy
8:56 PM 66.9 °F 46.0 °F 47% 29.95 in 10.0 mi North 4.6 mph - N/A   Mostly Cloudy
9:56 PM 64.9 °F 46.9 °F 52% 29.97 in 10.0 mi NNW 3.5 mph - N/A   Overcast
10:56 PM 64.9 °F 48.0 °F 54% 29.97 in 10.0 mi Calm Calm - N/A   Overcast
11:56 PM 62.1 °F 51.1 °F 67% 29.98 in 10.0 mi Calm Calm - N/A   Mostly Cloudy